Location: Lugo
(45.5667°N, 10.9833°E)
Time: 05:37:29
(UTC+00:00)

Daily predictions for brighter satellites

Satellite Brightness Start Highest point End
(mag) Time Altitude Azimuth Time Altitude Azimuth Time Altitude Azimuth
Okean 1 Rocket 4.2 00:09:30 41° NNE 00:09:30 41° NNE 00:12:24 10° N
SJ 16-02 2.6 00:09:53 40° NNE 00:09:53 40° NNE 00:12:46 10° NNE
SL-16 R/B 2.4 00:08:58 10° NNW 00:13:48 63° NW 00:13:48 63° NW
Cosmos 2263 Rocket 3.6 00:14:58 25° E 00:14:58 25° E 00:19:18 10° NE
Cosmos 2142 Rocket 4.4 00:17:47 81° SSE 00:18:06 85° E 00:24:32 10° N
Cosmos 1428 Rocket 4.4 00:12:37 10° NNW 00:18:53 73° W 00:18:53 73° W
MOZ.5/SAFIR/RUBIN 5/SL-8 4.4 00:22:13 54° NE 00:22:13 54° NE 00:26:25 10° N
Cosmos 1937 Rocket 4.1 00:27:08 48° E 00:27:08 48° E 00:31:52 10° NNE
SL-19 R/B 4.3 00:21:08 10° NNE 00:26:52 71° E 00:26:52 71° E
Cosmos 990 Rocket 4.2 00:29:47 67° NE 00:29:47 67° NE 00:34:23 10° NNE
Cosmos 2297 Rocket 3.2 00:28:55 35° WNW 00:29:33 36° NW 00:34:45 10° NNE
Cosmos 158 Rocket 4.3 00:25:30 10° NNW 00:29:59 60° NW 00:29:59 60° NW
ADEOS II 4.0 00:28:36 10° NE 00:32:17 19° E 00:33:36 17° ESE
Cosmos 1455 Rocket 4.1 00:35:30 42° ENE 00:35:30 42° ENE 00:39:06 10° NNE
ATLAS CENTAUR R/B 4.0 00:37:35 12° E 00:37:35 12° E 00:38:22 10° E
Cosmos 2266 Rocket 4.4 00:30:31 10° N 00:36:45 56° ENE 00:38:25 43° SE
USA 229 DEB 3.4 00:36:45 72° S 00:37:20 77° SE 00:44:11 10° NE
USA 229 3.4 00:36:53 72° S 00:37:26 77° SE 00:44:16 10° NE
Cosmos 2112 Rocket 4.3 00:32:29 10° NNW 00:36:47 59° NW 00:36:47 59° NW
UNK 4.2 00:38:59 57° ENE 00:38:59 57° ENE 00:43:27 10° N
Cosmos 2237 Rocket 4.3 00:39:53 10° WNW 00:41:12 14° WNW 00:41:12 14° WNW
Cosmos 1898 Rocket 3.5 00:43:57 80° N 00:43:57 80° N 00:48:53 10° NNE
NOSS 2-3 (C) 4.3 00:48:09 49° ENE 00:48:09 49° ENE 00:52:08 10° NE
GEOS 3 Rocket 4.1 00:42:08 10° NE 00:47:19 49° ESE 00:47:19 49° ESE
NOSS 3-1 (A) 3.2 00:48:36 66° SE 00:48:44 67° ESE 00:54:58 10° NE
Cosmos 1892 Rocket 4.2 00:44:24 10° N 00:47:50 53° N 00:47:50 53° N
Meteor 1-24 Rocket 3.6 00:44:04 10° NNW 00:49:06 72° WNW 00:49:06 72° WNW
IRAS Rocket 4.2 00:49:56 69° SE 00:50:37 81° ENE 00:56:16 10° NNW
Cosmos 1680 Rocket 4.3 00:47:48 10° NNW 00:51:28 39° WNW 00:51:28 39° WNW
Cosmos 1603 4.0 00:49:33 10° NNW 00:55:18 66° ENE 00:57:17 40° SE
Cosmos 1461 4.2 00:55:29 36° NW 00:55:29 36° NW 00:59:37 10° NNE
Cosmos 1340 Rocket 3.5 01:07:07 52° NNE 01:07:07 52° NNE 01:10:12 10° NNE
CZ-2D R/B 2.0 01:01:51 10° NNE 01:07:23 88° ESE 01:08:00 72° S
Cosmos 1758 3.9 01:08:43 56° NE 01:08:43 56° NE 01:12:01 10° NNE
SL-16 R/B 2.4 01:09:25 59° SSW 01:10:31 72° WSW 01:16:47 10° NNW
Timation 1 Rocket 4.2 01:10:12 64° WSW 01:11:06 77° WNW 01:17:06 10° NNE
SL-24 R/B 4.3 01:12:55 78° S 01:13:16 88° W 01:18:36 10° N
Cosmos 1943 3.2 01:08:13 10° NNW 01:13:52 77° ENE 01:16:09 37° SE
Cosmos 1626 4.3 01:14:03 10° NNW 01:15:17 18° NW 01:15:17 18° NW
Cosmos 1655 Rocket 4.0 01:11:35 10° NNW 01:17:42 57° W 01:18:27 54° WSW
Cosmos 2227 Rocket 4.0 01:18:31 17° WNW 01:20:37 20° NW 01:24:45 10° N
Cosmos 2292 Rocket 4.3 01:14:36 10° NNW 01:21:26 61° W 01:22:07 57° WSW
Cosmos 1544 Rocket 3.5 01:22:37 78° NW 01:22:37 78° NW 01:26:57 10° N
Cosmos 1470 3.4 01:24:18 48° NNW 01:24:18 48° NNW 01:27:30 10° N
Cosmos 1953 2.8 01:23:54 54° E 01:23:56 54° E 01:27:56 10° NNE
IRS-1D 3.8 01:19:20 10° NNE 01:24:25 61° ESE 01:25:39 47° SSE
NPP 3.6 01:20:46 10° NNE 01:26:11 77° WNW 01:27:05 61° SW
AQUA 3.7 01:29:09 10° N 01:33:55 76° WNW 01:34:26 67° SW
Atlas Centaur 2 4.1 01:38:02 17° SSE 01:38:02 17° SSE 01:41:30 10° SE
Exosat Rocket 4.3 01:36:53 40° SW 01:39:51 69° WNW 01:45:52 10° NNE
Resurs 1-4 Rocket 2.5 01:35:39 10° N 01:40:42 48° WNW 01:41:36 43° W
Cosmos 1602 Rocket 3.4 01:39:27 10° N 01:43:49 89° SW 01:44:26 65° S
Meteor 2-21 Rocket 4.5 01:38:19 10° N 01:44:25 79° E 01:48:18 24° SSE
Cosmos 2098 Rocket 4.3 01:39:47 10° NNW 01:45:13 46° W 01:46:33 40° WSW
Cosmos 2227 4.4 01:44:00 45° WSW 01:45:34 60° WNW 01:51:17 10° NNE
NOSS 2-3 (E) 4.2 01:44:49 42° WNW 01:45:41 48° NW 01:50:41 10° NNE
SJ 16-02 3.5 01:46:52 14° WNW 01:47:30 14° NW 01:49:50 10° NNW
USA 267 4.5 01:41:56 10° E 01:47:58 41° NNE 01:53:59 10° NW
IDEFIX/ARIANE 42P 4.0 01:44:46 10° NNE 01:49:26 32° E 01:53:20 14° SSE
Meteor 2-14 Rocket 4.3 01:43:38 10° N 01:49:43 80° W 01:52:41 32° S
NOSS 3-1 (C) 4.4 01:48:09 25° W 01:50:50 37° NW 01:56:56 10° NNE
Cosmos 1048 Rocket 3.9 01:51:59 10° NNW 01:57:10 89° ENE 02:01:22 16° SSE
Cosmos 1908 3.6 01:56:15 45° SSE 01:57:12 62° E 02:01:05 10° NNE
Cosmos 2263 Rocket 2.5 01:56:40 38° WSW 01:58:23 52° WNW 02:03:50 10° NNE
IRS-P3 4.1 01:54:02 10° NNE 01:59:25 81° ESE 02:01:52 34° S
Cosmos 2298 Rocket 4.0 01:57:57 44° SSW 01:59:41 78° WNW 02:05:04 10° NNE
Cosmos 2228 3.9 01:59:31 23° SSE 02:01:53 46° E 02:06:06 10° NNE
Meteor 1-16 Rocket 4.1 02:01:58 35° S 02:04:23 88° W 02:10:03 10° N
Cosmos 372 Rocket 4.4 02:04:37 38° WSW 02:06:11 51° WNW 02:11:19 10° NNE
Meteor 1-28 Rocket 3.2 02:06:33 36° SSE 02:08:01 84° ENE 02:11:51 10° N
COBE Rocket 4.3 02:08:32 37° WSW 02:08:46 37° W 02:13:05 10° NNW
SL-08 R/B 3.3 02:05:26 21° SSE 02:08:50 88° W 02:13:48 10° NNW
ADEOS II 2.2 02:07:13 10° N 02:12:24 61° WNW 02:14:32 35° SW
Cosmos 1356 Rocket 4.4 02:10:31 20° SSE 02:13:04 43° E 02:16:59 10° NNE
Cosmos 1626 Rocket 4.3 02:09:14 10° NNW 02:13:03 32° W 02:13:03 32° W
Cosmos 2285 Rocket 4.0 02:10:59 32° SSW 02:14:07 76° WNW 02:20:28 10° NNE
Cosmos 1726 3.1 02:14:19 30° WNW 02:14:19 30° WNW 02:17:30 10° N
CZ-2C R/B 4.4 02:10:56 10° NE 02:14:17 29° E 02:17:08 13° SSE
ATLAS CENTAUR R/B 1.3 02:13:46 47° WSW 02:14:45 67° NW 02:18:39 10° NNE
CZ-4B R/B 3.9 02:10:48 10° N 02:15:16 42° WNW 02:16:40 33° WSW
Cosmos 1900 4.5 02:11:11 10° NNW 02:16:21 82° ENE 02:21:31 10° SE
Cosmos 1300 4.2 02:14:37 13° SSE 02:17:33 33° E 02:21:01 10° NNE
Cosmos 1553 Rocket 3.9 02:15:29 22° S 02:19:38 88° E 02:25:49 10° N
Cosmos 1844 Rocket 3.1 02:17:42 21° S 02:21:19 57° ESE 02:26:47 10° NNE
ERS-2 4.2 02:18:53 10° SE 02:22:02 28° ENE 02:25:13 10° N
NOSS 8 (H) 4.2 02:24:24 51° S 02:25:01 68° SE 02:28:00 10° NE
CZ-4C R/B 4.4 02:22:39 10° SE 02:25:44 37° ENE 02:28:55 10° N
Meteor 1-11 4.3 02:20:22 10° N 02:26:09 85° E 02:31:49 10° SSE
SL-08 ROCKET BODY 4.4 02:23:18 10° N 02:29:22 86° E 02:35:18 10° S
Cosmos 2084 4.1 02:28:47 29° WSW 02:30:39 47° NW 02:34:58 10° NNE
Cosmos 1745 Rocket 4.0 02:24:51 10° N 02:31:09 84° E 02:37:21 10° S
Lacrosse 5 rocket 4.2 02:31:38 10° SE 02:32:38 11° ESE 02:33:39 10° ESE
ARIANE 5 R/B 2.5 02:27:35 10° N 02:32:50 74° WNW 02:36:11 23° SSW
Cosmos 1758 Rocket 3.7 02:31:49 10° NNW 02:36:00 49° W 02:38:14 25° SSW
ERS-1 4.5 02:33:00 10° N 02:37:55 65° WNW 02:41:00 23° SSW
Cosmos 494 Rocket 4.0 02:40:28 10° NNW 02:45:31 56° WSW 02:50:35 10° S
Cosmos 2058 Rocket 3.4 02:41:30 11° S 02:45:50 67° E 02:50:14 10° NNE
CZ-2D R/B 4.0 02:43:27 10° NNW 02:46:41 16° WNW 02:49:18 12° W
H-2A R/B 2.0 02:42:44 10° SSE 02:46:49 77° ENE 02:50:56 10° N
Cosmos 1703 4.3 02:48:02 10° NNW 02:51:27 28° W 02:52:42 23° WSW
S3M 4.0 02:45:35 12° SSW 02:51:29 75° W 02:57:54 10° N
CZ-2C R/B 3.7 02:49:04 10° NNE 02:53:21 37° E 02:57:42 10° SSE
Cosmos 1825 Rocket 4.0 02:50:29 10° NNW 02:54:32 39° W 02:57:29 17° SSW
SL-16 R/B 4.3 02:54:31 11° W 02:55:10 11° W 02:57:09 10° WNW
Landsat 5 3.4 02:51:46 10° SSE 02:55:45 89° ENE 02:59:57 10° NNW
Cosmos 1125 Rocket 4.1 02:54:00 20° SW 02:57:18 43° WNW 03:02:21 10° N
USA 215 3.3 02:51:43 10° NE 02:58:19 86° SE 03:03:50 15° SW
Cosmos 1953 4.3 02:59:36 13° W 03:00:43 14° WNW 03:02:50 10° NW
SL-24 R/B 4.4 02:57:45 10° S 03:03:07 65° WSW 03:07:44 10° NNW
CZ-4B R/B 3.5 03:01:55 10° SE 03:04:43 28° ENE 03:07:28 10° N
Cosmos 1892 4.0 03:01:07 10° N 03:04:48 43° ENE 03:08:26 10° SSE
Cosmos 1953 Rocket 3.9 03:01:45 10° NNW 03:06:03 46° W 03:10:17 10° SSW
CZ-2D R/B 4.0 03:06:19 10° N 03:10:01 37° WNW 03:12:52 15° SW
Cosmos 1709 Rocket 4.0 03:04:45 10° N 03:10:57 86° W 03:17:03 10° S
PAYLOAD A 4.3 03:10:37 10° NNE 03:15:55 74° ESE 03:20:59 10° S
USA 238 DEB 4.3 03:14:34 10° NW 03:21:47 71° NE 03:29:16 10° SE
USA 238 4.3 03:14:41 10° NW 03:21:53 70° NE 03:29:21 10° SE
Atlas Centaur 2 4.0 03:20:39 11° SW 03:25:18 23° S 03:31:01 10° SE
NOSS 2-2 (E) 3.7 03:22:45 13° WSW 03:25:46 48° NW 03:29:45 10° NNE
NOSS 2-2 (D) 3.3 03:23:29 13° SW 03:26:37 60° NW 03:30:33 10° NNE
CENTAUR R/B 4.0 03:20:12 10° NW 03:28:02 57° NE 03:36:39 10° ESE
IDEFIX/ARIANE 42P 3.3 03:24:17 10° N 03:29:01 36° WNW 03:33:45 10° SW
USA 267 3.4 03:24:01 10° SE 03:30:34 88° NE 03:37:09 10° NW
ADEOS 4.3 03:25:43 10° NNE 03:30:52 56° E 03:35:59 10° S
Cosmos 2082 Rocket 4.3 03:28:17 10° N 03:33:19 32° NE 03:38:19 10° ESE
MSX 4.2 03:29:26 10° N 03:34:59 50° WNW 03:40:31 10° SW
PSLV R/B 3.6 03:31:29 10° N 03:35:52 71° WNW 03:40:10 10° SSW
COSMOS 2406 3.5 03:32:27 10° NNW 03:38:10 75° ENE 03:43:49 10° SSE
Cosmos 1825 3.5 03:35:49 10° N 03:39:27 44° ENE 03:43:03 10° SSE
ADEOS Rocket 3.9 03:33:25 10° SSE 03:41:09 78° ENE 03:48:52 10° NNW
Cosmos 2315 Rocket 4.1 03:34:55 10° SSW 03:41:11 63° WNW 03:47:32 10° N
Cosmos 1844 4.3 03:37:58 10° SW 03:43:29 45° WNW 03:49:00 10° NNE
Cosmos 2263 Rocket 4.3 03:41:43 10° WNW 03:43:42 12° NW 03:45:41 10° NNW
